www.pogodaiklimat.ru

Погода и климат >> Архив погоды >> Норвегия >> Аэропорт Haugesund


ПОГОДА в Аэропорту Haugesund

  • Прогноз погоды в Аэропорту Haugesund
  • Монитор погоды в Аэропорту Haugesund

АРХИВ ПОГОДЫ в Аэропорту Haugesund

Время (UTC), дата Ветер
(напр.,м/с)
 
Видим.   Явления Облачность Т
(С)
Тd
(С)
f
(%)
Тe
(С)
Тes
(С)
Комфортность P
(гПа)
Po
(гПа)
Тmin
(С)
Tmax
(С)
R
(мм)
R24
(мм)
S
(см)
13 15.09 З 18
{26}
н/о н/о +12.4 +8.5 77 +8 +8 1006.8 1003.7
14 15.09 З 17
{24}
н/о н/о +12.7 +8.2 74 +8 +8 1007.7 1004.5
15 15.09 З 15
{25}
н/о н/о +11.9 +9.3 84 +7 +7 1008.4 1005.2
16 15.09 СЗ 15
{22}
н/о н/о +12.2 +7.7 74 +8 +8 1009.1 1005.9
17 15.09 СЗ 15
{23}
н/о н/о +12.3 +7.2 71 +8 +8 1009.9 1006.7
18 15.09 СЗ 14
{26}
н/о н/о +12.2 +7.5 73 +8 +8 1010.7 1007.6 +10.1 +13.2
19 15.09 СЗ 13
{19}
н/о н/о +11.4 +6.1 70 +7 +7 1011.7 1008.5
20 15.09 СЗ 13
{18}
н/о н/о +11.5 +5.8 68 +7 +7 1012.1 1008.9
21 15.09 СЗ 11
{18}
н/о н/о +11.4 +6.3 71 +7 +7 1012.3 1009.1
22 15.09 СЗ 9
{19}
н/о н/о +11.3 +6.7 73 +8 +8 1012.6 1009.4
23 15.09 СЗ 8
{14}
н/о н/о +11.1 +5.9 70 +8 +8 1012.8 1009.6
00 16.09 СЗ 7
{19}
н/о н/о +9.8 +6.0 77 +6 +6 1013.0 1009.8
01 16.09 СЗ 7
{15}
н/о н/о +8.8 +6.4 85 +5 +5 1013.0 1009.7
02 16.09 СЗ 8
{12}
н/о н/о +10.1 +6.3 77 +6 +6 1012.9 1009.6
03 16.09 СЗ 11
{15}
н/о н/о +10.6 +5.8 72 +6 +6 1012.7 1009.5
04 16.09 СЗ 8
{17}
н/о н/о +10.0 +6.9 81 +6 +6 1012.6 1009.4
05 16.09 СЗ 11
{15}
н/о н/о +10.5 +4.9 68 +6 +6 1012.6 1009.4
06 16.09 СЗ 9
{17}
н/о н/о +10.5 +3.8 63 +7 +7 1012.9 1009.6 +8.7 +12.2
07 16.09 З 9
{15}
н/о н/о +10.7 +7.0 78 +7 +7 1013.0 1009.8
08 16.09 СЗ 8
{12}
н/о н/о +11.3 +7.6 78 +8 +8 1013.3 1010.1
09 16.09 З 7
{12}
н/о н/о +11.2 +6.9 75 +8 +8 1013.0 1009.8
10 16.09 З 7
{11}
н/о н/о +12.4 +6.2 66 +10 +10 1013.0 1009.8
11 16.09 З 5
{11}
н/о н/о +11.5 +7.2 75 +9 +9 1012.7 1009.5
12 16.09 СЗ 4
{15}
н/о н/о +10.7 +7.8 82 +8 +8 1012.5 1009.3
13 16.09 З 9
{13}
н/о н/о +12.3 +8.8 79 +9 +9 1012.1 1008.9
14 16.09 З 10
{15}
н/о н/о +12.9 +8.0 72 +10 +10 1011.7 1008.5
15 16.09 З 10
{14}
н/о н/о +12.5 +8.4 76 +9 +9 1011.2 1008.0
16 16.09 З 10
{14}
н/о н/о +12.1 +7.4 73 +9 +9 1010.7 1007.5
17 16.09 З 11
{16}
н/о н/о +11.5 +8.2 80 +7 +7 1010.3 1007.1
18 16.09 СЗ 8
{17}
н/о н/о +9.9 +7.2 83 +6 +6 1010.2 1007.0 +8.9 +13.2
19 16.09 СЗ 12
{15}
н/о н/о +10.7 +5.1 68 +6 +6 1010.0 1006.8
20 16.09 СЗ 13
{18}
н/о н/о +10.6 +4.7 67 +6 +6 1009.8 1006.6
21 16.09 З 12
{18}
н/о н/о +10.0 +1.9 57 +5 +5 1009.7 1006.5
22 16.09 СЗ 10
{20}
н/о н/о +9.6 +4.0 68 +5 +5 1009.8 1006.6
23 16.09 СЗ 10
{15}
н/о н/о +10.1 +3.2 62 +6 +6 1009.2 1006.0
00 17.09 З 11
{20}
н/о н/о +9.3 +4.9 74 +4 +4 1008.7 1005.5
01 17.09 З 13
{17}
н/о н/о +9.1 +2.9 65 +4 +4 1007.7 1004.5
02 17.09 СЗ 11
{20}
н/о н/о +8.7 +4.5 75 +4 +4 1007.4 1004.2
03 17.09 СЗ 11
{17}
н/о н/о +8.7 +4.3 74 +4 +4 1007.1 1003.9
04 17.09 СЗ 11
{20}
н/о н/о +7.5 +4.3 80 +2 +2 1007.1 1003.9
05 17.09 СЗ 10
{20}
н/о н/о +8.0 +2.5 68 +3 +3 1007.3 1004.1
06 17.09 СЗ 10
{20}
н/о н/о +8.3 +3.4 71 +3 +3 1007.8 1004.6 +7.1 +10.9
07 17.09 СЗ 12
{18}
н/о н/о +7.5 +4.6 82 +2 +2 1008.6 1005.4
08 17.09 СЗ 12
{18}
н/о н/о +7.8 +5.4 85 +2 +2 1009.2 1006.0
09 17.09 С 7
{15}
н/о н/о +7.2 +4.2 81 +3 +3 1010.4 1007.2
10 17.09 СЗ 7
{12}
н/о н/о +9.3 +5.3 76 +5 +5 1010.9 1007.7
11 17.09 С 10
{14}
н/о н/о +10.1 +5.7 74 +6 +6 1011.8 1008.6
12 17.09 С 10
{18}
н/о н/о +11.1 +5.4 68 +7 +7 1012.9 1009.7
13 17.09 С 10
{15}
н/о н/о +11.7 +6.0 68 +8 +8 1013.9 1010.7
14 17.09 С 9
{14}
н/о н/о +11.2 +6.6 73 +8 +8 1014.9 1011.7
15 17.09 С 12
{18}
н/о н/о +10.2 +7.3 82 +5 +5 1015.8 1012.6
16 17.09 С 10
{14}
н/о н/о +10.4 +7.5 82 +6 +6 1016.6 1013.3
17 17.09 СЗ 12
{18}
н/о н/о +11.0 +6.2 72 +7 +7 1017.2 1014.0
18 17.09 СЗ 11
{19}
н/о н/о +10.7 +4.8 67 +7 +7 1017.9 1014.7 +7.1 +12.1
19 17.09 СЗ 11
{18}
н/о н/о +10.8 +4.5 65 +7 +7 1018.6 1015.4
20 17.09 СЗ 11
{16}
н/о н/о +10.7 +4.4 65 +7 +7 1019.3 1016.0
21 17.09 СЗ 11
{17}
н/о н/о +10.0 +4.4 68 +6 +6 1020.0 1016.7
22 17.09 СЗ 9
{16}
н/о н/о +10.0 +3.7 65 +6 +6 1020.1 1016.9
23 17.09 СЗ 11
{15}
н/о н/о +9.2 +4.6 73 +4 +4 1020.5 1017.2
00 18.09 СЗ 9
{18}
н/о н/о +9.8 +4.2 68 +6 +6 1020.4 1017.2
01 18.09 СЗ 11
{15}
н/о н/о +9.8 +4.0 67 +5 +5 1020.6 1017.4
02 18.09 СЗ 10
{15}
н/о н/о +10.2 +4.8 69 +6 +6 1020.7 1017.4
03 18.09 СЗ 8
{14}
н/о н/о +9.8 +5.2 73 +6 +6 1020.9 1017.6
04 18.09 СЗ 10
{15}
н/о н/о +9.7 +6.2 79 +5 +5 1020.9 1017.6
05 18.09 СЗ 9
{17}
н/о н/о +9.4 +7.2 86 +5 +5 1021.1 1017.9
06 18.09 С 10
{18}
н/о н/о +9.0 +7.1 88 +4 +4 1021.5 1018.2 +8.6 +11.0
07 18.09 С 9
{12}
н/о н/о +10.1 +6.8 80 +6 +6 1022.0 1018.8
08 18.09 С 7
{12}
н/о н/о +10.5 +7.2 80 +7 +7 1022.4 1019.1
09 18.09 С 8
{11}
н/о н/о +11.1 +6.9 75 +8 +8 1023.0 1019.7
10 18.09 СЗ 8
{11}
н/о н/о +11.6 +7.3 75 +8 +8 1023.4 1020.2
11 18.09 С 8
{11}
н/о н/о +11.7 +6.2 69 +8 +8 1023.8 1020.5
12 18.09 С 8
{12}
н/о н/о +12.2 +6.3 67 +9 +9 1024.1 1020.8
13 18.09 С 11
{14}
н/о н/о +10.9 +6.5 74 +7 +7 1024.5 1021.2
14 18.09 С 10
{14}
н/о н/о +10.1 +6.6 79 +6 +6 1025.1 1021.8
15 18.09 СЗ 6
{12}
н/о н/о +10.5 +7.6 82 +7 +7 1025.0 1021.7
16 18.09 С 9
{13}
н/о н/о +10.4 +5.8 73 +6 +6 1025.1 1021.8
17 18.09 С 9
{14}
н/о н/о +10.4 +6.0 74 +6 +6 1025.4 1022.1
18 18.09
{14}
н/о н/о +10.0 +6.0 76 1025.5 1022.3 +8.9 +12.6
19 18.09 С 8
{14}
н/о н/о +10.3 +6.3 76 +6 +6 1026.0 1022.7
20 18.09 С 8
{13}
н/о н/о +9.7 +5.1 73 +6 +6 1026.4 1023.1
21 18.09 С 8
{14}
н/о н/о +10.0 +4.4 68 +6 +6 1026.5 1023.2
22 18.09
{11}
н/о н/о +9.9 +4.5 69 1026.9 1023.6
23 18.09 С 7
{11}
н/о н/о +9.4 +4.0 69 +6 +6 1026.9 1023.7
00 19.09 С 5
{14}
н/о н/о +8.5 +4.2 74 +5 +5 1027.2 1023.9
01 19.09 В 2
{6}
н/о н/о +7.7 +3.9 77 +6 +6 1027.4 1024.1
02 19.09 СВ 3
{5}
н/о н/о +7.2 +4.0 80 +4 +4 1027.5 1024.2
03 19.09 В 3
{5}
н/о н/о +7.6 +4.7 82 +5 +5 1027.4 1024.1
04 19.09 В 3
{4}
н/о н/о +4.8 +3.0 88 +1 +1 1027.4 1024.1
05 19.09 В 2
{3}
н/о н/о +6.1 +4.6 90 +4 +4 1027.5 1024.2
06 19.09 ЮВ 2
{6}
н/о н/о +6.0 +4.7 91 +3 +3 1027.6 1024.3 +4.7 +10.4
07 19.09 В 2
{3}
н/о н/о +7.7 +6.2 90 +6 +6 1028.1 1024.8
08 19.09 ЮВ 1
{3}
н/о н/о +9.1 +6.7 85 +8 +8 1028.4 1025.2
09 19.09 штиль 0
{1}
н/о н/о +9.6 +6.2 79 +9 +9 1028.5 1025.2
10 19.09 ЮВ 1
{2}
н/о н/о +10.5 +6.5 76 +10 +10 1028.7 1025.5
11 19.09 ЮЗ 1
{2}
н/о н/о +11.0 +6.8 75 +11 +11 1028.8 1025.5
12 19.09 ЮЗ 1
{3}
н/о н/о +11.3 +6.7 73 +11 +11 1028.6 1025.4
13 19.09 ЮЗ 2
{3}
н/о н/о +11.1 +6.5 73 +10 +10 1028.0 1024.8
14 19.09 ЮЗ 3
{5}
н/о н/о +11.0 +6.0 71 +9 +9 1027.7 1024.4
15 19.09 ЮЗ 5
{7}
н/о н/о +10.5 +4.9 68 +8 +8 1027.4 1024.1
16 19.09 ЮЗ 5
{8}
н/о н/о +10.2 +5.6 73 +7 +7 1026.9 1023.7
17 19.09 Ю 4
{7}
н/о н/о +9.4 +6.7 83 +7 +7 1027.0 1023.7
18 19.09 ЮВ 4
{8}
н/о н/о +8.5 +7.1 91 +5 +5 1026.6 1023.3 +6.1 +11.5
19 19.09 ЮВ 4
{6}
н/о н/о +8.6 +7.5 93 +5 +5 1026.2 1022.9
20 19.09 ЮВ 5
{7}
н/о н/о +9.1 +8.0 93 +6 +6 1025.5 1022.2
21 19.09 ЮВ 5
{8}
н/о н/о +9.2 +8.1 93 +6 +6 1025.5 1022.2
22 19.09 ЮВ 6
{9}
н/о н/о +9.2 +8.3 94 +5 +5 1025.5 1022.2
23 19.09 ЮВ 3
{8}
н/о н/о +9.6 +8.7 94 +7 +7 1025.5 1022.2
00 20.09 СЗ 2
{9}
н/о н/о +10.0 +9.1 94 +8 +8 1025.4 1022.1
01 20.09 ЮВ 3
{5}
н/о н/о +9.6 +8.7 94 +7 +7 1025.2 1022.0
02 20.09 З 7
{9}
н/о н/о +11.8 +10.9 94 +9 +9 1025.1 1021.8
03 20.09 СЗ 7
{9}
н/о н/о +11.6 +10.4 92 +8 +8 1025.0 1021.8
04 20.09 СЗ 7
{9}
н/о н/о +11.3 +10.1 92 +8 +8 1025.0 1021.8
05 20.09 СЗ 4
{6}
н/о н/о +11.6 +10.2 91 +9 +9 1024.8 1021.5
06 20.09 СЗ 3
{9}
н/о н/о +11.6 +10.4 92 +10 +10 1024.9 1021.7 +8.5 +12.1
07 20.09 СЗ 3
{6}
н/о н/о +11.8 +10.6 92 +10 +10 1025.1 1021.8
08 20.09 З 7
{9}
н/о н/о +12.1 +10.7 91 +9 +9 1025.2 1022.0
09 20.09 СЗ 4
{8}
н/о н/о +12.6 +10.7 88 +11 +11 1025.5 1022.3
10 20.09 СЗ 5
{7}
н/о н/о +13.0 +10.9 87 +11 +11 1025.3 1022.1
11 20.09 СЗ 3
{6}
н/о н/о +12.1 +9.8 86 +10 +10 1025.3 1022.0
12 20.09 СЗ 5
{9}
н/о н/о +13.0 +10.0 82 +11 +11 1025.3 1022.1
13 20.09 СЗ 5
{7}
н/о н/о +13.0 +9.3 78 +11 +11 1025.4 1022.1
14 20.09 СЗ 4
{7}
н/о н/о +12.9 +9.4 79 +11 +11 1025.4 1022.1
15 20.09 СЗ 3
{5}
н/о н/о +12.9 +9.5 80 +12 +12 1025.0 1021.8
16 20.09 СЗ 4
{5}
н/о н/о +12.9 +9.4 79 +11 +11 1025.0 1021.8
17 20.09 С 4
{5}
н/о н/о +12.4 +8.5 77 +10 +10 1024.6 1021.4
18 20.09 С 3
{7}
н/о н/о +11.5 +8.4 81 +10 +10 1024.5 1021.3 +11.5 +13.8
19 20.09
{3}
н/о н/о +10.2 +7.8 85 1024.5 1021.3
20 20.09 СВ 2
{2}
н/о н/о +9.5 +8.1 91 +8 +8 1024.4 1021.2
21 20.09 В 2
{3}
н/о н/о +8.4 +7.2 92 +6 +6 1024.1 1020.8
22 20.09 С 2
{2}
н/о н/о +8.1 +6.9 92 +6 +6 1023.9 1020.6
23 20.09 СВ 1
{2}
н/о н/о +6.1 +4.9 92 +5 +5 1023.5 1020.2
00 21.09 СЗ 1
{3}
н/о н/о +5.5 +4.3 92 +4 +4 1023.2 1019.9
01 21.09 СЗ 2
{3}
н/о н/о +7.6 +6.7 94 +5 +5 1023.1 1019.8
02 21.09 С 2
{4}
н/о н/о +6.1 +5.1 93 +4 +4 1023.0 1019.7
03 21.09 С 1
{2}
н/о н/о +5.2 +4.3 94 +4 +4 1022.9 1019.6
04 21.09 В 3
{3}
н/о н/о +6.7 +5.8 94 +3 +3 1022.6 1019.3
05 21.09 В 4
{5}
н/о н/о +6.9 +6.2 95 +3 +3 1022.1 1018.8
06 21.09 В 4
{5}
н/о н/о +7.3 +6.6 95 +4 +4 1022.0 1018.7 +5.0 +11.6
07 21.09 В 3
{5}
н/о н/о +9.0 +8.2 95 +6 +6 1021.8 1018.5
08 21.09 В 4
{5}
н/о н/о +9.2 +8.4 95 +6 +6 1021.8 1018.6
09 21.09 В 2
{4}
н/о н/о +11.2 +10.4 95 +10 +10 1021.9 1018.6
10 21.09 З 2
{3}
н/о н/о +12.6 +11.5 93 +12 +12 1021.9 1018.6
11 21.09 З 2
{2}
н/о н/о +13.1 +10.6 85 +12 +12 1021.5 1018.3
12 21.09 С 2
{5}
н/о н/о +13.4 +10.6 83 +13 +13 1021.1 1017.9
13 21.09 З 2
{3}
н/о н/о +14.8 +11.4 80 +14 +14 1020.5 1017.3
14 21.09 З 2
{3}
н/о н/о +14.5 +10.9 79 +14 +14 1019.7 1016.5
15 21.09 З 3
{4}
н/о н/о +14.2 +10.8 80 +13 +13 1019.1 1015.9
16 21.09 З 3
{3}
н/о н/о +14.0 +11.0 82 +13 +13 1018.7 1015.5
17 21.09 С 2
{3}
н/о н/о +13.6 +11.3 86 +13 +13 1018.0 1014.8
18 21.09 С 2
{4}
н/о н/о +12.6 +10.8 89 +12 +12 1017.6 1014.4 +7.2 +15.1
19 21.09
{3}
н/о н/о +12.0 +10.6 91 1017.5 1014.3
20 21.09 СЗ 1
{3}
н/о н/о +9.7 +8.3 91 +9 +9 1017.4 1014.2
21 21.09 СЗ 1
{3}
н/о н/о +8.7 +7.5 92 +8 +8 1017.0 1013.8
22 21.09 С 1
{1}
н/о н/о +7.8 +6.6 92 +7 +7 1016.7 1013.5
23 21.09 штиль 0
{1}
н/о н/о +7.1 +6.1 93 +6 +6 1016.2 1012.9
00 22.09 В 4
{4}
н/о н/о +9.1 +8.2 94 +6 +6 1015.8 1012.5
01 22.09 Ю 2
{5}
н/о н/о +10.3 +9.2 93 +9 +9 1015.6 1012.4
02 22.09 ЮВ 3
{4}
н/о н/о +9.0 +7.9 93 +6 +6 1015.1 1011.9
03 22.09 Ю 2
{4}
н/о н/о +8.2 +7.1 93 +6 +6 1014.7 1011.4
04 22.09 ЮЗ 2
{3}
н/о н/о +9.2 +8.3 94 +7 +7 1014.6 1011.4
05 22.09 СВ 1
{2}
н/о н/о +6.9 +6.0 94 +6 +6 1014.4 1011.2
06 22.09 В 2
{5}
н/о н/о +7.8 +7.1 95 +6 +6 1014.1 1010.8 +6.2 +12.6
07 22.09 В 4
{5}
н/о н/о +9.7 +8.9 95 +7 +7 1013.9 1010.7
08 22.09 ЮВ 3
{5}
н/о н/о +12.9 +11.8 93 +11 +11 1013.9 1010.7
09 22.09 ЮВ 4
{5}
н/о н/о +14.8 +12.1 84 +14 +14 1013.4 1010.3
10 22.09 ЮЗ 2
{4}
н/о н/о +17.3 +12.4 73 +18 +18 1013.2 1010.1
11 22.09 З 1
{3}
н/о н/о +16.7 +13.8 83 +18 +18 1012.9 1009.7
12 22.09 З 2
{5}
н/о н/о +17.0 +13.1 78 +17 +17 1012.6 1009.4
13 22.09 ЮЗ 2
{3}
н/о н/о +18.0 +12.2 69 +19 +19 1012.4 1009.3

 

Местоположение метеостанции Аэропорт Haugesund (Норвегия): широта 59.35 долгота 5.20 высота над уровнем моря 24 м.

В архиве по умолчанию представлена погода в Аэропорту Haugesund за последнюю неделю. Архивные данные за месяц целиком и за предыдущие месяцы, начиная с января 2011 года, Вы можете получить, выбрав интересующий диапазон дат из раскрывающегося списка и нажав кнопку "Ввод!".


*Определитесь, кто Вы:
робот инопланетянин человек

Внимание! Время в таблицах - всемирное. Для получения местного времени необходимо прибавить поправку, которая равна 1 ч.

Смотрите также архив погоды в соседних городах и на ближайших метеорологических станциях:

Погода в Роваере (Норвегия) (12 км)
Погода на Маяке Utsira (Норвегия) (19 км)
Погода в Недре Ватс (Норвегия) (33 км)
Погода в Квитсёй (Норвегия) (34 км)
Погода в Фистере (Норвегия) (51 км)
Погода в Ставангере (Норвегия) (53 км)
Погода в Ставангер аэропорту (Норвегия) (58 км)
Погода на Лярватне (Норвегия) (62 км)
Погода на Маяке Slatteroy (Норвегия) (63 км)
Погода в Сархейме (Норвегия) (70 км)

Пояснения к столбцам:

Ветер - указаны скорость ветра в м/с - средняя за 10 мин, порывы в срок и между сроками (в фигурных скобках) и направление, откуда дует ветер: С - северный, СВ - северо-восточный, В - восточный, ЮВ - юго-восточный, Ю - южный, ЮЗ - юго-западный, З - западный, СЗ - северо-западный.
Видимость - горизонтальная дальность видимости в метрах или километрах. При видимости от 1 до 10 км при отсутствии осадков обычно наблюдается дымка, при ухудшении видимости до 1 км и менее - туман. В сухую погоду видимость может ухудшаться дымом, пылью или мглою.
Явления - указаны атмосферные явления, наблюдавшиеся в срок или в последний час перед сроком; фигурными скобками обозначены явления, наблюдавшиеся между сроками (за 1-3 часа до срока); квадратными скобками обозначены град или гололедные отложения с указанием их диаметра в мм.
Облачность - указаны через наклонную черту общая и нижняя облачность в баллах и высота нижней границы облаков в метрах; квадратными скобками обозначены формы облаков: Ci - перистые, Cs - перисто-слоистые, Cc - перисто-кучевые, Ac - высококучевые, As - высокослоистые, Sc - слоисто-кучевые, Ns - слоисто-дождевые, Cu - кучевые, Cb - кучево-дождевые. Подробнее классификацию облаков см. в Атласе облаков (PDF).
T - Температура воздуха - температура, измеренная на высоте 2 м над землей.
Td - Температура точки росы - температура, при понижении до которой содержащийся в воздухе водяной пар достигнет насыщения.
f - Относительная влажность воздуха - влажноcть воздуха, измеренная на высоте 2 м над землей.
Te - Эффективная температура - температура, которую ощущает одетый по сезону человек в тени. Характеристика душности погоды. При расчете учитывается влияние влажности воздуха и скорости ветра на теплоощущения человека.
Tes - Эффективная температура на солнце - температура, которую ощущает человек, с поправкой на солнечный нагрев. Характеристика знойности погоды. Зависит от высоты солнца над горизонтом, облачности и скорости ветра. Ночью, в пасмурную погоду, а также при ветре 12 м/с и более поправка равна нулю.
P - Атмосферное давление - приведенное к уровню моря атмосферное давление.
Po - Атмосферное давление - измеренное на уровне метеостанции атмосферное давление.
Tmin - Минимальная температура - минимум температуры воздуха на высоте 2 м над землей.
Tmax - Максимальная температура - максимум температуры воздуха на высоте 2 м над землей.
R - Количество осадков - Количество выпавших осадков за период времени, мм. При наведении курсора мыши на число - период времени, за который выпало указанное количество осадков.
R24 - Количество осадков - Количество выпавших осадков за 24 часа, мм.
S - Снежный покров - Высота снежного покрова, см. При наведении курсора мыши на число - состояние снежного покрова и степень покрытия местности в баллах.